This demonstration page uses our WeatherBlox Daily Observations layout. Learn more.

Left ArrowRight Arrow

Hourly Observations for March 7, 2015

Temp ( °F °C ) Dew Point ( °F °C ) Humidity (%) Winds ( mph kmh ) Pressure ( in mb ) Visibility ( mi km ) Precip ( " mm )
12:53 am 00:53 Clear 24 -4.4 20 -6.7 84 84 SSW 5 7 30.29 1026 10 16 N/A
1:53 am 01:53 Clear 21 -6.1 18 -7.8 88 88 WSW 6 9 30.29 1026 10 16 N/A
2:53 am 02:53 Clear 20 -6.7 18 -7.8 92 92 WSW 5 7 30.28 1025 10 16 N/A
3:53 am 03:53 Clear 20 -6.7 17 -8.3 89 89 W 3 6 30.25 1024 10 16 N/A
4:53 am 04:53 Clear 20 -6.7 17 -8.3 89 89 WSW 3 6 30.25 1025 10 16 N/A
5:53 am 05:53 Clear 19 -7.2 16 -8.9 88 88 W 3 6 30.26 1025 10 16 N/A
6:53 am 06:53 Sunny 21 -6.1 19 -7.2 92 92 N N/A 30.25 1024 10 16 N/A
7:53 am 07:53 Partly Cloudy 24 -4.4 22 -5.6 91 91 N N/A 30.25 1024 10 16 N/A
8:53 am 08:53 Partly Cloudy 27 -2.8 24 -4.4 89 89 N N/A 30.24 1024 10 16 N/A
9:53 am 09:53 Mostly Cloudy 31 -0.6 25 -3.9 79 79 SW 5 7 30.25 1024 10 16 N/A
10:53 am 10:53 Cloudy 35 1.7 24 -4.4 64 64 SSW 8 13 30.24 1024 10 16 N/A
11:53 am 11:53 Cloudy 37 3 27 -3 65 65 WSW 7 11 30.21 1023 10 16 N/A
12:53 pm 12:53 Sunny 42 5.6 27 -2.8 55 55 SW 12 19 30.21 1023 10 16 N/A
1:53 pm 13:53 Sunny 47 8.3 28 -2.2 48 48 WSW 9 15 30.19 1023 10 16 N/A
2:53 pm 14:53 Sunny 53 11.7 24 -4.4 32 32 W 7 11 30.17 1022 10 16 N/A
3:53 pm 15:53 Sunny 53 11.7 20 -6.7 27 27 NNW 15 24 30.17 1022 10 16 N/A
4:53 pm 16:53 Partly Cloudy 52 11.1 18 -7.8 26 26 NNW 14 22 30.18 1022 10 16 N/A
5:53 pm 17:53 Sunny 46 7.8 19 -7.2 34 34 NNW 5 7 30.19 1022 10 16 N/A
6:53 pm 18:53 Clear 35 1.7 17 -8.3 48 48 N N/A 30.22 1023 10 16 N/A
7:53 pm 19:53 Mostly Cloudy 29 -1.7 17 -8.3 61 61 SSE 6 9 30.21 1023 10 16 N/A
8:53 pm 20:53 Clear 27 -2.8 18 -7.8 69 69 VRB 6 9 30.21 1023 10 16 N/A
9:53 pm 21:53 Partly Cloudy 26 -3.3 18 -7.8 71 71 N N/A 30.19 1022 10 16 N/A
10:53 pm 22:53 Cloudy 28 -2.2 21 -6.1 75 75 N N/A 30.18 1022 10 16 N/A
11:53 pm 23:53 Cloudy 26 -3.3 21 -6.1 81 81 N N/A 30.16 1022 10 16 N/A

Powered by AerisWeather